Date,TemperatureHighF,TemperatureAvgF,TemperatureLowF,DewpointHighF,DewpointAvgF,DewpointLowF,HumidityHigh,HumidityAvg,HumidityLow,PressureMaxIn,PressureMinIn,WindSpeedMaxMPH,WindSpeedAvgMPH,GustSpeedMaxMPH,PrecipitationSumIn
2013-1-1,27.2,16.4,6.4,15.2,9.7,2.8,86,76,53,30.04,30.04,0,0,0,0.00
2013-1-2,39.9,24.5,12.3,28.7,18.3,8.1,84,78,60,30.04,30.04,0,0,0,0.00
2013-1-3,31.4,24.7,16.5,26.0,17.9,11.1,84,75,60,30.04,30.04,0,0,0,0.00
2013-1-4,36.8,22.2,14.5,20.6,15.0,11.2,87,75,50,30.04,30.04,0,0,0,0.00
2013-1-5,35.2,26.1,19.9,24.1,19.5,14.4,88,76,54,30.04,30.04,0,0,0,0.00
2013-1-6,42.0,24.3,14.1,24.7,17.5,10.1,86,76,49,30.04,30.04,0,0,0,0.00
2013-1-7,43.7,33.6,27.3,29.0,24.8,22.7,87,71,50,30.04,30.04,0,0,0,0.00
2013-1-8,42.6,32.8,22.2,30.6,26.0,18.9,89,77,57,30.04,30.04,0,0,0,0.00
2013-1-9,49.8,34.4,23.7,36.0,27.3,20.6,90,77,51,30.04,30.04,11,0,11,0.00
2013-1-10,38.8,35.0,29.6,35.7,30.3,25.9,92,83,69,30.04,30.04,0,0,0,0.14
2013-1-11,50.4,41.2,26.9,42.8,38.0,19.9,95,86,73,30.04,30.04,12,0,12,0.00
2013-1-12,26.9,16.4,9.5,19.4,8.4,-1.6,76,66,53,30.04,30.04,0,0,0,0.00
2013-1-13,22.8,13.1,2.3,11.3,6.2,-3.3,78,66,34,30.04,30.04,0,0,0,0.00
2013-1-14,31.6,17.8,6.4,16.6,8.1,1.8,83,68,46,30.04,30.04,0,0,0,0.00
2013-1-15,36.7,23.7,13.6,23.1,13.9,7.7,79,67,46,30.04,30.04,0,0,0,0.00
2013-1-16,52.5,36.0,21.9,33.3,25.0,16.0,79,66,47,30.04,30.04,1,0,1,0.00
2013-1-17,47.5,33.9,23.2,32.7,27.5,19.8,89,78,54,30.04,30.04,0,0,0,0.00
2013-1-18,53.4,39.8,31.8,34.0,29.0,26.3,85,66,46,30.04,30.04,0,0,0,0.00
2013-1-19,53.5,39.3,25.7,31.9,26.2,13.8,78,61,37,30.04,30.04,8,0,8,0.04
2013-1-20,25.7,17.5,11.9,14.6,7.6,4.6,90,65,54,30.04,30.04,1,0,1,0.00
2013-1-21,17.2,12.7,6.1,10.8,4.7,-3.4,78,69,64,30.04,30.04,0,0,1,0.00
2013-1-22,27.7,17.6,9.7,14.1,8.4,1.3,77,67,52,30.04,30.04,20,2,20,0.00
2013-1-23,32.7,17.9,7.3,19.9,9.6,1.6,77,70,54,30.04,30.04,0,0,0,0.00
2013-1-24,21.3,10.7,-3.3,7.6,-0.4,-10.3,73,61,29,30.04,30.04,0,0,0,0.00
2013-1-25,53.7,30.3,16.8,26.1,16.1,5.6,73,57,34,30.04,30.04,1,0,1,0.00
2013-1-26,57.8,34.5,21.0,31.0,21.8,16.6,84,63,31,30.04,30.04,0,0,0,0.00
2013-1-27,43.7,37.9,33.8,40.8,33.9,25.6,92,86,59,30.04,30.04,0,0,0,0.12
2013-1-28,46.0,38.0,32.2,43.5,36.0,30.3,94,93,90,30.04,30.04,0,0,0,0.00
2013-1-29,39.9,32.4,27.0,38.3,29.9,23.7,94,90,86,30.04,30.04,7,0,7,0.00
2013-1-30,30.3,20.0,9.1,28.6,15.3,5.2,93,82,65,30.04,30.04,0,0,0,0.00
2013-1-31,16.1,9.5,0.0,12.8,1.2,-7.3,87,69,54,30.04,30.04,18,0,18,0.00
2013-2-1,31.9,17.1,0.8,19.4,8.3,-6.0,76,69,55,30.04,30.04,13,0,13,0.00
2013-2-2,45.1,33.6,19.9,34.1,25.5,14.9,86,73,55,30.04,30.04,0,0,0,0.00
2013-2-3,45.2,34.9,21.3,30.1,25.1,17.1,87,69,45,30.04,30.04,0,0,0,0.00
2013-2-4,37.4,27.3,21.0,29.2,21.7,15.2,87,80,70,30.04,30.04,6,0,6,0.00
2013-2-5,52.5,36.3,26.0,34.1,26.2,22.6,89,70,39,30.04,30.04,1,0,1,0.00
2013-2-6,61.4,43.3,33.6,42.1,32.6,26.9,81,67,47,30.04,30.04,1,0,1,0.00
2013-2-7,42.6,33.7,28.2,36.6,28.2,22.2,83,79,75,30.04,30.04,0,0,0,0.00
2013-2-8,40.9,29.9,23.9,30.2,24.1,19.7,88,79,64,30.04,30.04,0,0,0,0.00
2013-2-9,54.6,38.7,28.2,40.4,31.7,25.4,91,77,55,30.04,30.04,0,0,0,0.00
2013-2-10,43.7,36.3,30.6,41.6,31.0,22.6,93,81,69,30.04,30.04,18,2,18,0.02
2013-2-11,42.5,32.1,23.9,25.6,21.8,18.6,81,67,48,30.04,30.04,11,1,11,0.00
2013-2-12,50.7,32.3,19.9,27.8,20.2,16.0,87,65,36,30.04,30.04,12,2,12,0.00
2013-2-13,57.0,36.3,23.5,31.4,24.0,17.3,84,64,36,30.04,30.04,13,1,13,0.00
2013-2-14,44.9,36.5,21.9,31.1,25.2,14.2,84,65,39,30.04,30.04,17,2,17,0.00
2013-2-15,36.3,24.0,14.5,23.1,15.5,9.5,82,71,48,30.04,30.04,14,1,14,0.00
2013-2-16,40.5,25.9,12.9,26.1,17.8,8.9,86,72,54,30.04,30.04,10,1,10,0.00
2013-2-17,61.9,39.6,21.9,35.8,27.6,18.3,87,65,36,30.04,30.04,12,2,12,0.00
2013-2-18,44.4,32.4,23.3,32.9,24.2,14.8,85,72,57,30.04,30.04,15,3,15,0.00
2013-2-19,29.9,19.4,12.0,16.1,5.3,-1.9,75,56,35,30.04,30.04,16,1,16,0.00
2013-2-20,24.0,15.2,6.9,11.3,4.4,0.0,74,62,52,30.04,30.04,5,0,5,0.00
2013-2-21,23.5,20.5,15.8,18.2,12.9,9.1,87,73,54,30.04,30.04,14,2,14,0.00
2013-2-22,29.1,20.6,9.6,18.2,12.8,5.2,87,73,53,30.04,30.04,6,0,6,0.06
2013-2-23,43.0,22.7,6.6,28.9,15.1,2.5,87,74,47,30.04,30.04,29,1,29,0.02
2013-2-24,50.2,34.4,24.0,28.6,24.9,19.6,84,70,42,30.04,30.04,8,1,8,0.00
2013-2-25,36.1,29.2,20.6,32.2,24.4,17.0,87,86,83,30.04,30.04,7,3,7,0.00
2013-2-26,32.7,26.1,20.3,26.9,23.0,15.7,91,87,78,30.04,30.04,11,4,11,0.00
2013-2-27,41.9,31.7,25.3,26.4,24.2,19.4,88,74,44,30.04,30.04,17,2,17,0.08
2013-2-28,33.9,28.2,3.2,25.9,21.8,-2.4,82,77,67,30.04,30.04,10,3,10,0.00
2013-3-1,27.1,23.9,20.1,20.0,16.4,11.6,78,72,66,30.04,30.04,8,5,8,0.00
2013-3-2,48.0,28.9,10.7,25.7,16.7,0.3,87,63,38,30.04,30.04,8,0,8,0.00
2013-3-3,48.7,38.9,31.8,33.2,25.6,20.7,77,59,51,30.04,30.04,6,1,6,0.00
2013-3-4,31.6,28.0,22.1,25.8,23.2,17.7,83,82,77,30.04,30.04,5,0,5,0.00
2013-3-5,29.1,27.5,22.1,24.5,22.9,17.7,83,83,83,30.04,30.04,0,0,0,0.00
2013-3-6,29.1,23.2,18.7,24.4,17.0,13.3,83,79,73,30.04,30.04,5,0,5,0.00
2013-3-7,58.8,37.3,22.4,34.4,25.1,18.2,84,64,40,30.04,30.04,12,1,12,0.00
2013-3-8,62.7,42.3,28.2,41.6,32.0,23.9,85,68,45,30.04,30.04,9,2,14,0.08
2013-3-9,58.9,47.4,34.7,53.7,42.9,32.1,91,85,75,30.04,30.04,17,3,17,0.08
2013-3-10,34.7,26.2,20.0,32.2,23.5,17.3,92,89,84,30.04,30.04,20,4,20,0.06
2013-3-11,43.2,26.5,17.4,24.3,17.7,13.0,90,71,45,30.04,30.04,7,1,7,0.10
2013-3-12,41.1,29.8,21.9,24.3,20.6,16.3,87,70,47,30.04,30.04,13,1,13,0.00
2013-3-13,49.1,30.6,13.8,27.9,19.8,10.1,88,67,42,30.04,30.04,8,0,8,0.00
2013-3-14,62.9,43.6,31.6,40.9,31.4,22.2,82,64,41,30.04,30.04,8,2,8,0.00
2013-3-15,69.9,51.2,39.7,45.2,38.7,33.3,85,65,37,30.04,30.04,36,3,36,0.00
2013-3-16,42.0,31.5,23.1,37.8,25.7,17.3,88,79,67,30.04,30.04,22,5,22,0.00
2013-3-17,53.2,35.7,24.6,34.5,25.8,19.4,83,69,47,30.04,30.04,11,2,11,0.00
2013-3-18,49.4,40.0,30.9,32.7,26.9,18.3,90,63,52,30.04,30.04,12,2,12,0.06
2013-3-19,56.3,40.2,23.8,37.3,23.2,14.2,66,52,32,30.04,30.04,12,2,12,0.00
2013-3-20,40.9,27.0,17.2,19.1,10.7,4.2,72,52,33,30.04,30.04,10,2,10,0.00
2013-3-21,37.4,27.4,21.1,21.9,14.9,2.5,76,59,29,30.04,30.04,6,0,6,0.04
2013-3-22,37.1,30.4,23.8,26.5,19.9,15.5,78,65,53,30.04,30.04,4,0,4,0.00
2013-3-23,33.5,30.5,28.5,28.5,23.0,17.7,89,74,54,30.04,30.04,14,2,14,0.00
2013-3-24,32.5,26.5,19.9,26.1,18.5,10.0,89,73,52,30.04,30.04,14,4,14,0.04
2013-3-25,33.3,27.0,6.2,22.4,19.3,14.5,85,72,61,30.04,30.04,11,3,13,0.00
2013-3-26,48.7,31.5,19.5,26.4,18.9,13.7,81,62,38,30.04,30.04,8,1,8,0.00
2013-3-27,58.6,38.6,26.0,34.8,25.8,19.9,80,62,41,30.04,30.04,10,1,10,0.00
2013-3-28,70.8,46.1,29.1,38.3,30.4,24.8,85,59,29,30.04,30.04,17,1,17,0.00
2013-3-29,76.8,54.7,33.5,44.9,33.2,21.4,64,46,27,30.04,30.04,10,2,10,0.00
2013-3-30,68.2,56.7,49.6,51.8,43.5,35.7,90,64,36,30.04,30.04,18,3,18,0.65
2013-3-31,62.1,49.4,33.6,41.1,33.9,24.9,84,58,31,30.04,30.04,19,4,19,0.02
2013-4-1,42.9,32.4,23.5,29.4,19.4,13.6,87,62,38,30.04,30.04,13,4,13,0.02
2013-4-2,53.1,35.6,22.1,33.5,21.4,14.6,75,56,38,30.04,30.04,4,0,4,0.00
2013-4-3,59.3,43.8,36.8,29.9,24.4,15.4,54,43,32,30.04,30.04,6,0,6,0.00
2013-4-4,71.0,42.9,27.4,41.8,28.4,15.6,80,58,34,30.04,30.04,10,1,10,0.00
2013-4-5,75.7,50.2,34.5,42.8,31.5,22.9,62,52,28,30.04,30.04,13,2,13,0.00
2013-4-6,73.5,59.6,50.9,46.1,40.6,34.1,72,51,34,30.04,30.04,29,3,29,0.00
2013-4-7,84.5,60.1,43.8,49.2,41.4,35.4,85,54,26,30.04,30.04,11,1,18,0.25
2013-4-8,73.4,55.0,46.5,61.6,50.9,43.8,92,87,65,30.04,30.04,43,1,43,0.00
2013-4-9,61.8,45.6,33.4,59.7,43.8,31.6,94,90,48,30.04,30.04,20,6,20,0.35
2013-4-10,35.6,32.4,27.7,33.8,30.5,25.9,94,93,90,30.04,30.04,15,3,15,0.28
2013-4-11,37.1,30.9,23.4,32.1,27.3,21.1,92,87,78,30.04,30.04,7,0,7,0.00
2013-4-12,50.4,36.5,25.7,33.5,28.0,20.7,84,72,51,30.04,30.04,8,2,8,0.00
2013-4-13,60.2,48.7,38.6,42.0,35.4,28.3,79,59,51,30.04,30.04,6,4,6,0.00
2013-4-14,63.6,53.6,42.8,49.7,39.9,28.9,84,62,39,30.04,30.04,17,2,17,0.02
2013-4-15,49.3,39.9,29.0,29.4,25.5,17.3,69,57,45,30.04,30.04,8,1,8,0.00
2013-4-16,51.9,41.4,33.8,33.3,28.6,19.5,76,62,43,30.04,30.04,19,4,19,0.00
2013-4-17,45.3,39.6,33.8,39.4,34.5,29.2,93,83,62,30.04,30.04,16,3,16,0.61
2013-4-18,35.9,31.2,25.3,33.6,28.6,22.5,92,90,89,30.04,30.04,59,5,59,0.26
2013-4-26,74.4,62.2,47.1,52.3,47.1,42.7,85,60,39,30.04,30.04,11,2,11,0.00
2013-4-27,76.8,55.9,43.3,55.0,46.5,39.9,90,73,45,30.04,30.04,14,1,14,0.00
2013-4-28,85.2,64.0,47.3,54.6,49.7,44.0,92,64,33,30.04,30.04,21,3,21,0.00
2013-4-29,91.5,69.6,54.8,58.9,52.1,45.0,81,57,28,30.04,30.04,32,3,32,0.00
2013-4-30,73.2,67.2,62.2,57.4,50.2,44.1,61,55,45,30.04,30.04,15,5,18,0.00
2013-5-1,62.2,40.1,31.1,44.3,34.7,28.4,93,83,50,30.04,30.04,36,8,36,0.78
2013-5-2,49.2,38.8,32.5,33.8,29.9,24.4,93,72,50,30.04,30.04,39,4,39,0.43
2013-5-3,52.7,41.0,30.5,32.2,27.9,24.0,81,61,42,30.04,30.04,18,5,22,0.00
2013-5-4,43.3,38.4,31.9,39.2,34.0,28.9,91,85,62,30.04,30.04,59,7,59,0.04
2013-5-5,56.8,47.1,40.7,47.8,41.4,35.2,90,81,66,30.04,30.04,10,2,10,0.00
2013-5-6,72.0,55.5,46.4,53.5,46.4,41.4,90,73,51,30.04,30.04,8,2,12,0.00
2013-5-7,80.2,60.7,44.4,57.3,50.5,42.1,93,72,42,30.04,30.04,14,1,14,0.00
2013-5-8,74.2,62.3,56.1,59.1,53.9,50.2,88,75,57,30.04,30.04,10,2,10,0.04
2013-5-9,69.7,59.4,53.4,57.8,54.1,49.5,94,83,62,30.04,30.04,10,2,10,0.02
2013-5-10,74.0,57.6,49.2,53.3,47.3,43.5,89,71,44,30.04,30.04,14,3,14,0.00
2013-5-11,63.2,53.4,40.6,46.5,32.0,21.3,86,48,24,30.04,30.04,20,4,20,0.00
2013-5-12,74.1,53.1,34.5,36.8,31.0,23.3,75,46,22,30.04,30.04,14,1,14,0.00
2013-5-13,89.1,67.8,49.2,54.3,45.9,35.3,69,48,26,30.04,30.04,20,3,20,0.00
2013-5-14,100.9,79.7,60.6,60.9,55.6,50.7,82,49,22,30.04,30.04,26,4,26,0.00
2013-5-17,92.3,80.5,69.6,64.2,60.3,57.9,71,51,39,30.04,30.04,28,4,32,0.00
2013-5-18,88.5,73.7,61.1,70.9,63.0,56.6,87,70,52,30.04,30.04,22,3,24,0.33
2013-5-19,80.4,67.2,59.0,67.6,59.9,55.1,92,78,55,30.04,30.04,20,2,20,0.43
2013-5-20,80.1,66.3,56.3,59.1,54.4,49.3,91,68,46,30.04,30.04,13,2,13,0.02
2013-5-21,65.8,59.2,53.9,54.3,48.5,41.7,81,68,53,30.04,30.04,13,2,13,0.00
2013-5-22,63.9,55.3,49.4,51.7,47.2,43.5,85,75,62,30.04,30.04,9,1,9,0.00
2013-5-23,73.7,58.8,50.4,53.8,47.7,44.0,85,68,44,30.04,30.04,13,2,13,0.00
2013-5-24,77.7,62.7,48.7,55.9,49.4,43.2,86,63,46,30.04,30.04,13,2,13,0.00
2013-5-25,87.4,69.8,60.4,70.0,60.1,51.6,92,72,56,30.04,30.04,21,2,28,0.24
2013-5-26,88.5,74.9,66.9,74.6,65.7,61.6,87,74,58,30.04,30.04,21,2,21,0.00
2013-5-27,86.5,68.7,57.1,67.7,61.8,55.1,93,80,51,30.04,30.04,26,3,28,2.00
2013-5-28,83.0,69.3,61.3,66.4,61.9,59.0,94,78,55,30.04,30.04,26,3,26,0.10
2013-5-29,82.2,68.0,61.2,73.3,63.9,57.9,93,87,73,30.04,30.04,24,2,24,1.18
2013-5-30,79.9,65.5,59.7,65.5,58.8,53.2,93,80,58,30.04,30.04,19,2,19,0.20
2013-5-31,80.8,67.5,53.9,57.5,51.7,46.2,87,60,37,30.04,30.04,18,1,18,0.00
2013-6-1,67.4,58.4,53.8,53.9,48.1,44.1,77,68,56,30.04,30.04,12,2,12,0.00
2013-6-2,73.2,58.8,51.8,49.3,44.6,39.7,77,61,41,30.04,30.04,20,2,20,0.00
2013-6-3,81.7,63.9,51.2,56.5,50.0,44.6,82,62,40,30.04,30.04,14,1,14,0.00
2013-6-4,80.0,67.3,60.4,65.4,58.6,54.1,85,74,58,30.04,30.04,16,1,16,0.00
2013-6-5,74.7,63.8,54.8,62.8,52.3,45.8,90,68,46,30.04,30.04,12,2,12,0.57
2013-6-6,77.4,62.1,52.3,56.4,49.1,45.8,85,65,42,30.04,30.04,23,1,23,0.00
2013-6-7,77.6,62.5,49.2,54.8,49.1,45.1,89,64,41,30.04,30.04,22,1,22,0.00
2013-6-8,77.6,64.4,57.9,65.1,56.0,50.0,89,74,63,30.04,30.04,13,1,13,0.19
2013-6-9,74.2,64.3,57.9,59.7,55.8,50.6,90,75,56,30.04,30.04,15,1,15,0.00
2013-6-10,89.2,69.5,53.2,65.8,57.8,50.3,93,68,44,30.04,30.04,30,2,30,0.00
2013-6-11,89.9,77.5,68.1,68.6,63.7,59.2,86,64,45,30.04,30.04,25,4,29,0.00
2013-6-12,89.8,77.9,64.2,70.6,63.2,52.7,81,61,42,30.04,30.04,34,4,34,0.00
2013-6-13,77.2,65.7,57.0,61.9,55.2,50.2,84,70,41,30.04,30.04,28,2,28,0.20
2013-6-14,95.6,76.0,64.0,76.2,64.9,57.3,81,69,49,30.04,30.04,58,4,58,0.00
2013-6-15,84.0,74.3,67.6,68.8,64.8,59.2,88,73,57,30.04,30.04,22,1,22,0.02
2013-6-16,88.0,74.1,66.9,66.8,64.2,61.0,94,73,48,30.04,30.04,30,4,30,0.00
2013-6-17,89.9,76.7,66.5,64.9,59.4,52.1,86,58,34,30.04,30.04,30,4,30,0.00
2013-6-18,86.7,72.7,62.2,62.1,57.9,53.8,80,61,43,30.04,30.04,33,2,33,0.00
2013-6-19,89.7,76.3,64.2,67.1,62.4,58.8,84,63,44,30.04,30.04,30,4,30,0.00
2013-6-20,94.8,79.6,66.7,74.6,67.5,61.0,85,67,50,30.04,30.04,34,5,34,0.00
2013-6-21,97.1,84.2,76.6,73.4,70.3,64.5,79,64,43,30.04,30.04,30,6,30,0.00
2013-6-22,93.3,80.5,70.0,72.6,66.1,59.5,77,62,46,30.04,30.04,32,5,32,0.00
2013-6-23,81.4,73.5,62.9,71.6,65.7,58.9,90,77,63,30.04,30.04,26,3,26,0.49
2013-6-24,88.5,76.8,70.5,75.9,70.0,67.1,92,80,64,30.04,30.04,25,3,26,0.24
2013-6-25,94.1,81.8,71.6,76.3,70.6,62.4,85,69,56,30.04,30.04,38,6,38,0.00
2013-6-26,98.4,82.5,71.9,72.8,67.4,60.3,94,64,32,30.04,30.04,28,6,28,0.00
2013-6-27,82.3,75.3,69.4,70.8,66.4,61.6,88,74,62,30.04,30.04,24,2,24,0.35
2013-6-28,78.4,70.3,67.1,68.4,64.9,56.4,93,84,52,30.04,30.04,6,0,6,0.00
2013-6-29,84.3,74.0,66.9,59.5,56.6,54.5,68,55,40,30.04,30.04,24,3,24,0.02
2013-6-30,79.5,69.0,58.2,61.4,56.6,51.9,88,67,43,30.04,30.04,20,2,20,0.00
2013-7-1,85.8,77.6,65.3,56.1,54.2,51.4,66,45,36,30.04,30.04,30,5,30,0.00
2013-7-2,89.4,71.6,58.1,62.9,57.1,51.4,85,62,38,30.04,30.04,32,3,32,0.00
2013-7-3,93.3,73.5,58.8,64.0,58.4,54.8,90,63,35,30.04,30.04,32,4,32,0.00
2013-7-4,94.2,75.9,61.8,64.1,57.8,53.1,75,55,34,30.04,30.04,29,4,29,0.00
2013-7-5,95.1,78.4,66.5,68.7,61.5,56.4,74,57,41,30.04,30.04,28,4,33,0.00
2013-7-6,93.0,79.0,70.1,70.4,63.2,57.6,70,59,47,30.04,30.04,27,4,28,0.00
2013-7-7,101.3,84.1,72.3,72.6,66.6,61.5,71,57,39,30.04,30.04,25,6,27,0.00
2013-7-8,92.8,82.7,77.1,74.2,69.8,65.2,75,65,53,30.04,30.04,27,6,27,0.00
2013-7-9,102.7,87.0,75.7,77.5,71.6,65.3,75,61,43,30.04,30.04,27,6,27,0.00
2013-7-10,89.7,79.2,71.6,71.2,66.4,62.6,82,66,45,30.04,30.04,26,5,31,0.00
2013-7-11,93.7,78.7,65.1,65.9,63.1,59.1,82,61,39,30.04,30.04,30,5,30,0.00
2013-7-12,100.2,81.2,68.5,74.9,66.3,58.5,72,62,44,30.04,30.04,22,4,27,0.00
2013-7-13,97.5,82.7,74.6,76.0,69.9,65.8,75,66,47,30.04,30.04,28,4,28,0.00
2013-7-14,94.2,83.2,70.5,68.1,64.4,60.9,80,56,37,30.04,29.97,31,2,31,0.00
2013-7-15,93.0,92.7,90.0,64.0,63.7,60.9,38,38,38,29.97,29.97,0,0,0,0.00
2013-7-16,93.0,92.7,90.0,64.0,63.7,60.9,38,38,38,29.97,29.97,68,12,68,0.00
2013-7-17,93.0,92.7,90.0,64.0,63.6,60.9,38,38,38,29.97,29.97,68,68,68,0.00
2013-7-18,100.2,91.6,81.5,73.0,65.6,64.0,59,37,17,30.05,29.94,68,43,68,0.00
2013-7-19,99.5,84.4,73.4,74.8,67.4,63.1,75,58,41,29.97,29.89,28,5,28,0.00
2013-7-20,87.8,78.8,69.4,68.0,64.3,58.6,78,62,41,29.98,29.85,24,4,29,0.00
2013-7-21,99.6,81.1,68.7,75.6,68.9,63.5,88,68,46,29.93,29.78,26,6,27,0.00
2013-7-22,103.2,83.9,70.7,77.6,70.4,64.3,91,66,41,29.86,29.76,27,4,27,0.00
2013-7-23,80.4,73.5,64.9,68.7,64.3,61.4,90,74,63,30.05,29.84,20,2,20,0.27
2013-7-24,88.8,74.1,61.5,67.4,63.2,58.6,92,71,48,30.09,29.98,29,5,29,0.00
2013-7-25,81.5,74.0,69.8,68.3,64.7,61.0,86,73,63,30.05,29.99,15,1,15,0.02
2013-7-26,81.3,72.7,62.4,66.5,56.8,51.6,88,59,41,30.11,30.00,27,4,27,0.00
2013-7-27,78.4,65.5,56.4,53.5,50.1,46.5,82,60,37,30.14,30.00,19,1,19,0.00
2013-7-28,81.5,66.5,51.6,56.6,51.6,46.5,86,61,39,30.07,29.99,32,3,32,0.00
2013-7-29,65.8,63.4,60.0,63.5,59.2,55.0,94,86,72,30.04,29.98,3,0,3,0.59
2013-7-30,77.7,70.1,64.7,69.2,65.5,63.1,96,86,69,30.11,30.00,19,1,19,0.00
2013-7-31,89.2,75.1,63.5,72.0,66.5,61.1,95,76,54,30.14,30.04,33,5,33,0.00
2013-8-1,95.9,76.0,64.0,73.1,66.3,61.6,94,75,42,30.09,29.89,37,5,37,0.78
2013-8-2,85.8,75.1,65.6,71.0,66.7,62.4,92,76,59,30.01,29.80,27,5,27,0.06
2013-8-3,82.0,70.9,62.6,65.5,61.3,58.0,86,73,53,30.17,30.00,24,2,24,0.00
2013-8-4,79.3,70.1,63.3,67.9,62.2,56.8,88,76,66,30.16,30.01,26,1,26,0.00
2013-8-5,90.9,77.6,69.4,77.2,70.8,65.8,93,80,61,30.03,29.84,30,5,30,0.00
2013-8-6,94.6,80.1,69.6,78.4,71.9,67.3,95,77,57,29.93,29.81,32,7,34,0.00
2013-8-7,87.4,76.4,69.6,72.6,64.8,59.2,88,69,44,30.00,29.84,34,4,37,0.00
2013-8-8,80.7,71.0,64.9,68.2,63.7,60.6,87,78,64,30.03,29.95,18,1,18,0.00
2013-8-9,85.6,74.0,66.3,69.8,64.6,58.9,91,74,53,30.14,30.01,32,4,32,0.00
2013-8-10,91.7,74.6,61.1,69.5,62.1,54.9,83,66,47,30.19,30.07,33,5,33,0.00
2013-8-11,94.8,77.1,64.7,73.5,65.8,59.1,84,69,49,30.12,29.99,32,4,32,0.00
2013-8-12,87.0,75.6,66.3,72.3,66.4,61.2,92,74,52,30.07,29.99,31,5,31,0.20
2013-8-13,82.0,71.4,62.7,63.5,59.7,56.3,86,68,48,30.16,30.06,22,2,22,0.00
2013-8-14,81.5,68.8,59.0,64.4,59.0,53.7,84,72,52,30.18,30.05,11,0,11,0.00
2013-8-15,75.5,66.4,62.2,66.0,60.8,58.9,91,82,69,30.08,30.00,12,0,15,0.49
2013-8-16,79.8,68.7,62.2,64.5,60.1,57.9,89,75,55,30.16,30.07,18,0,18,0.00
2013-8-17,87.9,71.3,62.4,63.8,59.0,55.8,83,67,43,30.19,30.10,23,2,23,0.00
2013-8-18,88.8,71.7,57.9,65.3,59.3,52.4,83,66,44,30.15,30.03,33,3,33,0.00
2013-8-19,93.7,77.1,66.0,72.5,65.9,60.0,83,69,49,30.08,29.92,39,5,39,0.00
2013-8-20,97.3,80.3,70.1,74.6,68.7,65.0,84,69,47,29.98,29.91,35,5,35,0.00
2013-8-21,98.9,81.4,69.6,75.8,69.5,64.8,86,69,47,30.00,29.93,31,5,31,0.00
2013-8-22,91.1,77.9,70.3,73.5,68.3,64.2,87,73,54,30.08,29.96,28,4,28,0.00
2013-8-23,96.9,80.3,70.3,75.5,69.8,67.1,92,73,45,30.07,29.96,32,5,32,0.00
2013-8-24,100.0,84.2,75.5,76.8,70.9,67.0,79,65,46,30.06,29.99,34,5,34,0.00
2013-8-25,102.0,84.8,74.1,76.7,71.6,68.5,83,66,43,30.11,30.03,28,6,28,0.00
2013-8-26,102.0,84.9,74.4,76.5,71.0,68.5,82,65,43,30.08,29.95,27,5,29,0.00
2013-8-27,102.9,84.8,73.9,76.0,69.4,63.6,78,61,41,29.97,29.91,28,5,28,0.00
2013-8-28,103.6,83.8,71.2,75.6,66.8,62.7,78,59,36,30.01,29.93,29,5,30,0.00
2013-8-29,105.2,85.4,71.7,78.2,71.1,66.0,87,65,39,30.00,29.90,29,4,29,0.00
2013-8-30,107.2,86.1,73.5,77.8,71.0,65.3,82,63,35,29.92,29.84,28,4,28,0.00
2013-8-31,102.0,83.2,73.4,76.9,71.7,68.6,89,71,41,29.90,29.79,31,5,31,0.00
2013-9-1,86.3,76.9,66.5,70.5,63.4,56.7,87,65,41,30.01,29.77,27,4,34,0.00
2013-9-2,85.3,70.3,59.5,62.4,57.4,51.9,90,66,40,30.10,30.01,30,4,31,0.00
2013-9-3,94.4,73.7,57.3,67.4,59.1,52.0,84,62,39,30.10,30.01,31,5,38,0.00
2013-9-4,91.2,75.1,63.3,69.6,61.6,56.1,78,64,39,30.16,30.03,44,4,44,0.00
2013-9-5,97.8,78.3,68.9,69.0,63.1,59.4,74,61,37,30.18,30.08,30,4,30,0.00
2013-9-6,99.1,81.1,68.7,73.9,66.0,60.0,77,62,43,30.08,29.90,33,5,33,0.00
2013-9-7,99.1,78.3,73.0,73.3,67.0,65.1,84,70,41,29.93,29.88,30,5,30,0.00
2013-9-8,99.0,81.9,0.0,76.4,70.6,0.0,93,71,45,29.92,29.79,31,6,31,0.00
2013-9-9,103.6,85.2,73.2,70.5,63.7,58.7,68,51,31,29.86,29.79,31,5,31,0.00
2013-9-10,103.1,82.9,71.2,71.7,64.5,58.9,89,56,35,30.06,29.86,32,4,32,0.80
2013-9-11,84.5,74.3,69.6,73.7,69.2,66.2,92,84,69,30.13,30.03,28,3,28,0.67
2013-9-12,82.2,71.8,0.0,67.9,59.6,0.0,94,69,39,30.21,30.11,34,5,34,0.08
2013-9-13,84.0,64.8,0.0,59.0,52.3,0.0,88,66,40,30.22,30.06,34,4,34,0.00
2013-9-14,82.9,67.3,0.0,59.1,52.8,0.0,76,61,43,30.06,29.86,21,2,22,0.00
2013-9-15,68.7,62.6,0.0,60.8,55.9,0.0,84,78,70,30.21,29.86,9,2,9,0.00
2013-9-16,64.5,59.3,0.0,55.7,52.7,0.0,88,79,72,30.29,30.17,6,1,6,0.00
2013-9-17,77.1,66.7,0.0,70.3,63.0,0.0,94,87,72,30.15,29.87,15,1,15,0.63
2013-9-18,95.3,77.9,67.8,74.6,68.0,64.9,92,74,48,29.88,29.70,30,7,33,0.00
2013-9-19,88.3,72.4,59.5,70.3,61.5,50.5,87,69,54,30.02,29.73,32,4,39,0.12
2013-9-20,75.3,61.1,50.1,51.8,47.8,43.9,86,64,39,30.10,29.97,26,2,26,0.00
2013-9-21,86.9,64.5,47.4,59.7,50.8,43.1,86,64,38,30.01,29.84,34,4,34,0.00
2013-9-22,88.7,69.3,57.7,59.3,53.5,48.5,81,60,33,29.89,29.78,28,4,28,0.00
2013-9-23,85.2,66.6,53.7,58.8,51.7,47.7,82,61,37,29.83,29.68,19,2,26,0.00
2013-9-24,73.7,63.8,55.7,59.1,54.8,50.6,87,73,59,29.91,29.67,16,1,16,0.00
2013-9-25,85.6,66.7,51.9,65.2,57.2,49.1,92,74,48,29.91,29.73,44,3,44,0.00
2013-9-26,94.6,74.5,62.4,64.9,60.2,57.8,86,64,37,29.79,29.71,29,4,29,0.00
2013-9-27,93.7,77.5,68.7,65.9,60.7,57.7,72,58,39,29.82,29.73,43,5,43,0.00
2013-9-28,74.3,63.3,50.3,61.5,51.1,42.0,87,66,41,30.05,29.68,25,2,25,0.31
2013-9-29,85.2,63.0,48.7,54.4,45.6,40.9,76,56,31,30.05,29.87,22,2,25,0.00
2013-9-30,88.7,67.3,54.5,58.3,50.9,45.1,78,58,34,29.90,29.71,36,4,36,0.00
2013-10-1,82.8,68.1,55.0,56.2,52.6,48.7,82,59,38,29.95,29.77,34,4,34,0.00
2013-10-2,92.4,73.2,60.4,70.5,60.6,51.2,88,67,43,29.95,29.82,37,4,37,0.00
2013-10-3,87.9,71.0,60.9,69.2,63.0,57.5,91,77,53,29.89,29.71,39,3,39,2.44
2013-10-4,85.0,68.3,51.0,73.7,59.8,38.0,92,76,50,29.92,29.62,28,4,31,0.00
2013-10-5,57.7,47.5,42.6,40.0,35.1,32.0,74,62,48,29.96,29.82,17,2,17,0.00
2013-10-6,56.2,47.9,42.6,44.9,39.7,34.4,87,74,50,30.01,29.80,10,1,10,0.02
2013-10-7,81.5,58.5,40.8,51.6,41.9,35.9,84,58,31,30.08,29.97,24,3,25,0.00
2013-10-8,83.3,64.9,53.7,51.8,44.9,40.5,62,50,33,29.98,29.87,26,4,26,0.00
2013-10-9,86.1,66.4,53.4,58.0,50.0,44.5,75,57,37,29.97,29.90,28,3,30,0.00
2013-10-10,86.1,67.7,54.5,62.1,54.7,47.7,83,65,44,29.97,29.77,30,3,31,0.00
2013-10-11,83.4,66.6,54.5,62.6,51.5,41.3,83,61,25,29.90,29.64,21,3,32,0.00
2013-10-12,73.0,55.1,44.2,44.4,38.4,32.5,78,56,30,30.26,29.90,24,2,24,0.00
2013-10-13,75.9,55.6,41.0,43.5,37.3,34.2,79,53,30,30.38,30.24,32,1,32,0.00
2013-10-14,59.5,53.9,46.9,57.2,46.0,36.6,92,76,53,30.25,29.73,11,2,11,0.74
2013-10-15,56.4,48.7,44.2,49.6,39.7,35.8,85,71,57,30.08,29.81,0,0,0,0.00
2013-10-16,62.2,48.0,39.9,43.0,36.3,30.6,85,66,40,30.07,29.94,11,0,11,0.00
2013-10-17,66.5,48.0,36.3,47.4,37.3,31.1,86,68,45,30.05,29.88,7,0,7,0.00
2013-10-18,52.2,41.7,35.6,37.6,32.1,27.3,81,70,49,30.12,30.00,0,0,0,0.00
2013-10-19,70.7,47.3,32.3,44.1,34.5,27.0,87,65,36,30.01,29.80,14,1,14,0.00
2013-10-20,67.6,52.4,43.8,48.3,38.5,34.8,73,60,41,30.01,29.71,15,0,15,0.00
2013-10-21,61.3,44.7,31.8,42.3,34.9,27.8,88,70,48,30.09,29.90,6,0,6,0.00
2013-10-22,56.1,46.4,34.1,43.5,37.5,28.5,84,72,55,30.10,29.86,0,0,0,0.00
2013-10-23,61.3,41.6,31.1,44.3,34.4,27.1,89,77,53,30.19,30.00,0,0,0,0.00
2013-10-24,53.8,41.3,32.1,34.1,28.9,23.0,85,63,39,30.38,30.18,0,0,0,0.00
2013-10-25,64.2,45.8,30.7,39.4,30.0,23.2,74,56,38,30.38,30.05,0,0,0,0.00
2013-10-26,56.8,45.3,0.0,36.3,31.9,25.3,78,60,42,30.21,30.01,0,0,0,0.00
2013-10-27,75.9,50.5,31.6,44.4,33.4,24.8,77,56,31,30.13,29.80,20,1,20,0.00
2013-10-28,54.8,46.2,38.1,40.1,35.8,31.7,82,68,56,30.13,29.92,0,0,0,0.00
2013-10-29,52.3,47.9,43.7,50.3,44.6,39.2,93,88,73,30.12,29.90,0,0,0,0.10
2013-10-30,58.6,48.8,44.4,54.1,46.2,40.8,94,91,83,29.95,29.75,0,0,0,0.04
2013-10-31,63.6,46.5,37.5,51.4,39.6,34.8,93,78,51,29.76,29.52,0,0,0,0.00
2013-11-1,64.5,48.6,0.0,45.4,37.7,0.0,83,67,42,30.00,29.62,8,0,8,0.00
2013-11-2,64.9,47.2,35.0,43.5,34.2,30.2,84,63,38,30.18,30.00,8,0,8,0.00
2013-11-3,60.6,50.1,42.0,39.0,34.9,30.2,66,57,44,30.06,29.72,10,1,10,0.00
2013-11-4,57.9,49.6,39.9,45.3,38.2,32.9,77,65,51,30.11,29.75,14,2,14,0.00
2013-11-5,45.5,40.5,34.5,42.8,36.9,31.8,93,87,76,30.11,29.79,14,2,14,1.00
2013-11-6,47.8,37.4,31.2,38.2,31.8,27.0,91,81,65,30.25,30.04,11,1,11,0.00
2013-11-7,55.2,38.9,28.2,34.1,27.2,21.7,91,66,36,30.38,30.23,8,1,8,0.00
2013-11-8,66.7,49.8,36.5,40.1,34.0,25.7,77,56,36,30.23,29.73,18,2,18,0.00
2013-11-9,66.9,48.1,33.8,40.7,34.2,29.5,85,62,36,30.31,29.92,9,1,9,0.00
2013-11-10,60.0,43.6,29.1,38.0,31.4,24.5,86,64,39,30.37,30.11,8,1,8,0.00
2013-11-11,46.9,34.6,19.4,42.8,26.2,10.0,90,72,56,30.71,30.07,16,4,16,0.00
2013-11-12,40.2,21.1,10.9,18.7,9.5,5.7,81,63,37,30.82,30.51,8,0,8,0.00
2013-11-13,25.7,25.3,24.6,12.4,11.7,11.0,57,56,55,30.51,30.43,12,2,12,0.00
2013-11-15,62.6,48.8,28.0,42.4,37.1,24.6,88,66,44,29.86,29.57,57,3,57,0.00
2013-11-16,68.1,53.2,42.9,52.3,39.9,26.6,91,64,36,29.56,29.34,15,2,15,0.00
2013-11-17,62.7,49.1,35.2,43.7,33.8,27.9,80,57,41,30.06,29.30,12,2,12,0.00
2013-11-18,61.5,42.0,27.6,37.4,27.1,22.3,85,60,31,30.22,30.06,14,1,14,0.00
2013-11-19,65.3,50.7,35.2,38.7,28.5,23.7,66,44,31,30.14,29.84,19,3,19,0.00
2013-11-20,66.3,51.9,37.7,41.1,35.8,29.4,79,56,39,29.89,29.71,9,2,9,0.00
2013-11-21,37.5,27.1,-2.6,32.7,21.2,-9.9,86,79,70,30.52,29.90,18,4,18,0.00
2013-11-22,26.5,18.8,14.7,15.6,9.1,6.8,80,66,49,30.57,30.52,8,1,8,0.00
2013-11-23,24.4,19.0,13.5,9.8,5.9,-0.3,61,56,52,30.81,30.71,8,2,8,0.00
2013-11-24,38.3,30.5,25.0,17.7,12.7,8.3,57,47,40,30.51,30.21,6,2,6,0.00
2013-11-25,50.0,36.6,25.7,32.9,24.4,16.3,71,62,49,30.19,30.08,12,1,12,0.00
2013-11-26,35.2,26.3,-2.7,24.0,15.8,-17.6,83,65,41,30.39,30.17,15,2,15,0.00
2013-11-27,39.5,31.1,16.8,20.3,15.7,7.5,78,53,42,30.38,29.99,12,2,12,0.00
2013-11-28,35.7,26.6,18.1,21.7,16.8,11.4,78,67,50,30.42,30.04,13,2,13,0.00
2013-11-29,53.4,34.2,17.2,32.3,22.2,11.1,80,63,43,30.43,30.10,9,2,9,0.00
2013-11-30,63.5,41.4,28.2,38.6,27.4,0.0,79,60,36,30.12,30.03,19,1,19,0.00
2013-12-1,56.3,37.2,23.7,36.4,26.7,18.9,85,67,44,30.12,29.82,4,0,4,0.00
2013-12-2,68.0,46.8,32.9,41.9,33.1,27.4,83,62,35,29.82,29.50,10,1,10,0.00
2013-12-3,47.3,39.2,34.5,35.3,31.2,27.4,86,73,62,29.67,29.47,12,2,12,0.00
2013-12-4,23.9,19.7,16.1,21.1,13.7,8.0,89,78,69,30.07,29.64,9,1,9,0.00
2013-12-5,18.1,12.3,7.1,8.2,1.0,-3.3,71,61,51,30.39,30.04,10,1,10,0.04
2013-12-6,14.5,6.8,0.3,-1.1,-5.2,-8.3,67,58,47,30.64,30.37,12,1,12,0.00
2013-12-7,16.7,6.2,-3.4,2.9,-3.9,-10.3,73,63,51,30.67,30.32,3,0,3,0.00
2013-12-8,25.5,15.4,7.7,15.8,8.9,2.9,82,76,63,30.32,29.96,4,0,4,0.00
2013-12-9,21.3,7.5,-3.6,7.0,-0.8,-9.1,82,69,52,30.31,30.06,12,1,18,0.00
2013-12-10,39.0,23.2,11.3,22.6,13.6,4.8,78,67,50,30.22,30.06,11,1,16,0.00
2013-12-11,29.3,13.4,3.3,23.9,3.5,-4.3,80,65,47,30.61,30.20,16,2,16,0.00
2013-12-12,39.5,23.0,10.5,22.8,13.4,2.3,80,67,50,30.40,30.04,14,2,33,0.00
2013-12-13,37.7,24.7,16.8,27.2,18.8,12.7,85,79,63,30.05,29.83,10,1,10,0.00
2013-12-14,26.6,19.0,13.1,18.1,13.1,8.8,85,78,67,30.20,30.05,18,2,18,0.00
2013-12-15,44.0,27.9,17.9,31.5,21.6,14.0,87,78,58,30.13,29.91,5,0,5,0.00
2013-12-16,51.2,30.8,16.3,36.6,23.5,12.7,89,76,52,30.15,29.93,10,1,10,0.00
2013-12-17,45.6,31.9,23.3,31.8,21.9,14.3,90,69,41,30.28,30.06,33,1,33,0.00
2013-12-18,58.8,41.3,32.3,35.1,27.1,21.8,72,58,39,30.06,29.69,16,3,16,0.00
2013-12-19,36.8,29.6,16.8,28.2,22.7,13.0,85,76,66,29.87,29.71,14,4,14,0.00
2013-12-20,19.9,16.0,12.2,13.3,10.9,7.9,86,80,74,29.97,29.85,11,1,13,0.00
2013-12-21,26.9,21.3,17.4,19.4,15.5,12.2,85,78,72,29.88,29.75,12,2,12,0.00
2013-12-22,27.6,19.6,10.5,17.9,12.0,3.2,86,73,57,30.35,29.84,10,2,13,0.00
2013-12-23,19.5,10.8,4.7,3.9,-0.3,-6.1,73,61,48,30.56,30.36,6,0,6,0.00
2013-12-24,27.6,16.9,7.3,24.1,10.7,0.4,87,76,66,30.46,30.08,11,2,11,0.00
2013-12-25,46.2,29.0,17.4,31.9,20.7,13.2,89,73,48,30.28,30.18,12,1,12,0.00
2013-12-26,53.9,34.3,21.7,30.6,21.7,16.7,81,62,38,30.23,30.08,16,2,16,0.00
2013-12-27,63.5,39.5,22.1,35.4,24.6,15.4,81,59,30,30.23,30.04,16,3,16,0.00
2013-12-28,61.7,41.1,18.8,33.7,26.3,8.4,73,58,32,30.13,29.74,27,4,27,0.00
2013-12-29,18.6,11.1,5.9,8.4,-5.8,-13.4,70,47,31,30.36,30.12,16,3,16,0.00
2013-12-30,39.4,22.2,5.9,23.1,6.7,-10.5,72,51,39,30.24,30.02,16,2,16,0.00
2013-12-31,53.4,21.8,10.0,31.4,11.8,4.0,79,67,41,30.24,29.93,10,2,10,0.00
2014-1-1,13.1,9.0,3.3,5.7,2.7,-3.1,78,75,72,30.36,30.06,13,2,13,0.00
2014-1-2,15.4,6.0,-0.2,5.3,-0.7,-5.4,81,74,63,30.41,30.31,4,0,4,0.00